Location: Arras
(50.2918°N, 2.7803°E)
Time: 10:13:52
(UTC+00:00)

Daily predictions for brighter satellites

Satellite Brightness Start Highest point End
(mag) Time Altitude Azimuth Time Altitude Azimuth Time Altitude Azimuth
SPOT 3 Rocket 3.8 20:35:00 10° SE 20:40:01 57° ENE 20:45:04 10° N
Aureole 2 4.0 20:38:17 10° SSW 20:41:11 78° WNW 20:43:58 10° NNE
YAOGAN 11 4.3 20:38:15 10° NNE 20:42:41 58° ESE 20:47:01 10° S
NOSS 2-2 (D) 3.6 20:39:29 10° WSW 20:42:43 53° NW 20:45:40 10° NE
Cosmos 2082 4.0 20:38:41 10° SW 20:44:18 75° WNW 20:49:57 10° NNE
Cosmos 2227 4.3 20:39:50 10° S 20:45:27 58° ESE 20:51:06 10° NE
Okean 3 Rocket 4.0 20:42:01 10° N 20:46:22 50° ENE 20:50:40 10° SSE
Meteor 2-20 Rocket 4.4 20:42:15 10° S 20:48:01 78° E 20:54:04 10° NNE
CZ-4 R/B 3.9 20:45:37 10° SW 20:48:14 18° W 20:50:53 10° NW
Cosmos 2263 Rocket 3.9 20:43:22 10° WSW 20:48:32 38° NW 20:53:44 10° NNE
Helios 1A Rocket 3.1 20:45:42 10° N 20:48:46 53° WNW 20:51:48 10° SSW
Ariane Rocket 3.4 20:44:44 10° SE 20:49:39 53° ENE 20:54:36 10° N
IRS-1C Rocket 4.5 20:45:07 10° SE 20:50:13 54° ENE 20:55:20 10° N
Okean-O 2.9 20:46:23 10° S 20:50:43 67° WSW 20:55:06 10° NNW
Cosmos 1805 Rocket 4.3 20:48:35 10° N 20:52:37 37° ENE 20:56:38 10° SE
Spot 2 Rocket 4.0 20:47:37 10° S 20:52:37 60° W 20:57:40 10° NNW
CZ-4B R/B 4.4 20:50:54 10° SSW 20:55:58 39° W 21:01:00 10° NNW
Cosmos 1340 Rocket 2.9 20:52:19 10° N 20:56:03 55° ENE 20:59:43 10° SSE
NOSS 3-2 (A) 3.3 20:51:15 10° SSW 20:56:04 52° ESE 21:01:51 10° NE
Cosmos 1408 Rocket 4.2 20:52:37 10° N 20:56:48 41° ENE 21:00:59 10° SE
Cosmos 1603 3.8 20:52:06 10° NNW 20:57:53 89° ENE 21:03:36 10° SSE
Cosmos 1842 Rocket 3.6 20:53:46 10° S 20:58:12 79° E 21:02:39 10° NNE
USA 215 3.5 20:52:07 10° ESE 20:58:36 72° NNE 21:05:07 10° WNW
Cosmos 773 Rocket 4.1 20:55:26 10° SSW 21:00:34 86° WNW 21:05:47 10° NNE
BREEZE-M DEB (TANK) 3.2 20:59:38 10° WSW 21:00:56 14° SSW 21:02:08 10° S
Cosmos 1570 Rocket 4.4 21:00:28 10° SSW 21:05:47 72° WNW 21:11:09 10° NNE
USA 245 2.9 21:03:27 10° SSE 21:07:14 88° WSW 21:10:20 10° NNW
Cosmos 1844 Rocket 2.6 21:02:16 10° SSW 21:07:50 82° ESE 21:13:26 10° NNE
Meteor 2-10 Rocket 4.2 21:02:08 10° NNW 21:07:54 65° W 21:13:34 10° S
SL-14 R/B 3.1 21:07:19 10° S 21:11:01 79° E 21:14:46 10° NNE
Cosmos 1238 Rocket 4.3 21:07:52 10° SSW 21:12:34 48° WNW 21:17:09 10° N
Cosmos 1553 Rocket 4.3 21:07:56 10° SSE 21:14:03 52° E 21:20:09 10° NNE
CZ-4C R/B 3.7 21:07:28 10° NW 21:14:08 47° WSW 21:22:17 10° S
Cosmos 1833 Rocket 3.6 21:12:10 10° NNW 21:17:30 40° NE 21:22:47 10° ESE
Cosmos 1151 Rocket 3.3 21:14:35 10° S 21:18:47 52° E 21:23:00 10° NNE
Cosmos 2082 Rocket 4.5 21:18:34 10° N 21:22:03 16° NNE 21:25:31 10° ENE
CZ-2C R/B 2.3 21:23:48 17° SE 21:25:42 49° ENE 21:28:24 10° N
Cosmos 1953 3.4 21:24:02 10° NNE 21:27:09 27° ENE 21:29:35 14° SE
SL-24 R/B - RUBIN 2 3.6 21:23:51 10° SW 21:28:23 83° NW 21:32:45 10° NE
Cosmos 1844 3.9 21:23:13 10° SSW 21:29:01 80° WNW 21:34:51 10° NNE
CZ-4B R/B 3.6 21:24:45 11° SSE 21:29:38 79° WSW 21:34:52 10° NNW
Okean O Rocket 3.3 21:26:34 10° SSW 21:30:18 28° W 21:34:06 10° NW
Cosmos 1633 Rocket 4.5 21:31:15 10° N 21:34:59 26° ENE 21:38:07 13° ESE
In-Cosmos 22 4.4 21:30:05 10° SSW 21:35:50 80° WNW 21:41:38 10° N
NOSS 3-2 (C) 3.5 21:32:51 10° S 21:37:32 41° ESE 21:43:03 10° NE
Cosmos 1461 3.4 21:39:36 10° NW 21:42:50 35° WSW 21:45:06 16° S
NOSS 2-3 (C) 4.3 21:42:37 18° SE 21:43:31 20° ESE 21:46:11 10° ENE
USA 186 4.1 21:43:26 10° W 21:43:43 10° W 21:44:01 10° W
Cosmos 1745 Rocket 4.2 21:39:50 10° N 21:46:02 60° ENE 21:51:04 16° SSE
CZ-4B R/B 3.9 21:42:34 10° SSW 21:46:11 39° W 21:49:56 10° NNW
Sich 1 4.5 21:49:21 10° NNW 21:53:10 32° W 21:56:57 10° SSW
Cosmos 1500 Rocket 3.9 21:48:58 10° NNW 21:53:15 61° W 21:56:48 14° S
Helios 1A 3.8 21:51:53 10° NNE 21:55:27 31° E 21:57:27 20° SE
Cosmos 2344 4.1 21:48:54 10° S 21:55:57 36° ESE 22:02:20 10° NE
GP-B 3.1 21:53:22 10° N 21:57:46 80° W 22:01:23 15° S
Iridium 4 Rocket 3.5 21:55:05 15° S 21:59:43 81° E 22:04:47 10° N
Helios 1B rocket 3.5 21:57:41 15° ESE 21:59:48 26° ENE 22:02:44 10° N
Cosmos 1607 4.3 21:54:24 10° NW 22:00:41 60° WSW 22:05:32 18° SSE
ARIANE 5 R/B 4.1 21:59:12 12° ESE 22:02:27 26° ENE 22:06:09 10° N
SWARM C 4.4 22:00:37 10° N 22:03:53 80° E 22:05:40 24° S
SWARM A 4.2 22:00:48 10° N 22:04:02 67° E 22:05:43 25° SSE
Cosmos 2285 Rocket 4.5 22:01:48 10° NNW 22:07:58 55° WSW 22:13:01 16° S
Cosmos 1420 Rocket 4.3 22:04:16 10° NNW 22:09:25 58° ENE 22:13:10 18° SE
NOSS 2-3 (D) 3.2 22:07:03 10° SSW 22:10:36 57° SE 22:14:22 10° NE
ALOS 2 4.0 22:11:55 14° ESE 22:14:56 29° ENE 22:18:43 10° N
Cosmos 1538 Rocket 4.0 22:11:36 14° SSW 22:15:59 70° ESE 22:21:13 10° NNE
Cosmos 2315 Rocket 4.2 22:13:38 19° SSE 22:18:06 57° E 22:24:11 10° NNE
Cosmos 1943 Rocket 3.3 22:16:33 19° SE 22:19:11 27° ESE 22:23:52 10° NE
CENTAUR R/B 4.3 22:13:58 10° W 22:19:43 38° NNW 22:26:52 10° NE
Iridium 45 4.2 22:18:34 25° SSW 22:20:11 73° W 22:23:15 10° N
Cosmos 1328 Rocket 3.5 22:24:39 23° S 22:27:20 71° E 22:31:41 10° NNE
CZ-2C R/B 4.5 22:23:01 10° NNE 22:27:25 38° E 22:29:46 23° SSE
Lacrosse 5 rocket 1.7 22:30:44 29° SE 22:31:02 30° SE 22:34:09 10° ENE
Cosmos 1666 Rocket 3.6 22:30:38 10° NNW 22:34:59 72° W 22:37:29 24° S
CZ-2C R/B 4.3 22:31:56 10° ESE 22:36:02 24° ENE 22:40:11 10° N
NOSS 2-3 (E) 3.2 22:34:32 10° SW 22:38:11 79° NW 22:42:04 10° NE
Cosmos 1703 4.4 22:37:14 12° SW 22:39:41 29° WNW 22:42:32 10° N
Cosmos 1371 Rocket 4.5 22:34:51 10° NNW 22:40:02 54° ENE 22:43:38 19° SE
USA 215 3.5 22:37:29 21° SSE 22:41:50 51° SW 22:48:11 10° WNW
GEOS 3 Rocket 3.7 22:45:16 21° SE 22:48:56 80° SW 22:54:22 10° NW
Timation 1 Rocket 4.4 22:45:03 10° NW 22:51:01 74° WSW 22:54:45 24° SSE
S3M 4.2 22:48:42 16° SSW 22:53:38 69° WNW 22:59:46 10° N
Cosmos 1515 Rocket 3.7 22:55:38 29° SSE 22:57:42 60° E 23:01:59 10° NNE
Cosmos 2184 Rocket 4.5 22:52:33 10° N 22:58:40 52° ENE 23:02:54 20° SE
ARGOS Delta rocket 4.1 22:53:32 10° NNE 22:58:58 86° E 23:02:18 23° S
CSL-04 DEB 4.1 22:57:32 33° SSE 22:59:05 90° ENE 23:02:47 10° NNW
USA 59 Rocket 0.6 23:01:29 25° ESE 23:01:29 25° ESE 23:03:55 10° ENE
Cosmos 1833 Rocket 3.4 22:56:09 10° NW 23:01:28 43° WSW 23:04:36 22° SSW
Cosmos 1953 3.8 22:59:02 10° NW 23:01:57 24° W 23:03:47 16° SW
Spot 4 3.8 22:59:30 27° SSE 23:02:11 89° ENE 23:07:03 10° NNW
Meteor 1-16 Rocket 4.4 22:59:50 10° NNW 23:05:17 66° W 23:08:42 24° S
SAR-Lupe-2 4.3 23:05:49 27° ESE 23:07:04 39° ENE 23:10:07 10° N
Cosmos 2082 Rocket 2.7 23:01:53 10° NNW 23:07:27 55° NE 23:11:52 16° SE
Okean 3 3.7 23:09:18 31° SSE 23:10:50 51° E 23:14:43 10° NNE
Meteor 1-23 Rocket 4.4 23:07:55 20° SSW 23:11:53 70° WNW 23:17:28 10° N
Cosmos 1633 Rocket 4.1 23:08:40 10° NNW 23:12:42 37° W 23:15:02 21° SW
Cosmos 2278 Rocket 2.5 23:09:54 26° S 23:12:55 52° ESE 23:18:24 10° NE
Cosmos 1400 Rocket 2.5 23:20:30 10° NNW 23:24:12 81° WSW 23:25:30 38° S
Cosmos 1624 Rocket 4.1 23:19:07 10° NNW 23:24:24 71° WSW 23:27:15 28° S
COSMOS 2406 4.3 23:20:16 10° NNW 23:25:38 40° NE 23:30:57 10° ESE
Cosmos 1680 Rocket 3.4 23:22:43 24° SSW 23:25:54 87° ESE 23:31:07 10° NNE
CZ-2C R/B 3.5 23:21:20 10° NNE 23:26:50 55° E 23:29:38 27° SSE
Cosmos 494 Rocket 3.9 23:24:38 26° SSW 23:27:38 78° ESE 23:32:54 10° NNE
NOSS 3-2 (C) 4.2 23:23:06 10° WSW 23:28:13 49° NW 23:34:27 10° NE
Cosmos 2056 Rocket 3.6 23:26:06 10° NNW 23:31:08 59° WSW 23:33:38 29° S
Helios 1B rocket 3.5 23:31:35 22° SW 23:32:40 26° W 23:35:37 10° NW
NOSS 2-3 (C) 4.3 23:30:06 10° WSW 23:33:20 40° NW 23:36:57 10° NE
Cosmos 1328 4.5 23:35:16 28° SE 23:36:18 35° E 23:39:35 10° NNE
Cosmos 1812 3.3 23:34:41 10° NNW 23:35:32 23° NNW 23:35:32 23° NNW
ARIANE 5 R/B 3.4 23:36:34 26° SSW 23:38:34 42° W 23:42:49 10° NNW
ACS3 Solar Sail 2.5 23:34:41 10° NNE 23:39:57 37° E 23:43:12 21° SSE
USA 238 DEB 3.5 23:36:16 19° SSW 23:40:49 76° SE 23:47:37 10° NE
USA 238 3.5 23:36:31 19° SSW 23:41:01 75° SE 23:47:49 10° NE
Lacrosse 4 Rocket 4.4 23:39:17 10° N 23:41:30 14° NNE 23:43:43 10° ENE
Okean 2 4.4 23:42:04 20° SW 23:44:09 35° WNW 23:47:43 10° N
Cosmos 546 4.4 23:46:11 17° WSW 23:49:00 66° SSE 23:52:44 10° E
BREEZE-M DEB (TANK) 3.4 23:35:47 10° W 23:49:20 85° S 23:53:24 10° E
ALOS 2 3.5 23:49:18 25° SW 23:51:09 37° W 23:55:16 10° NNW
Cosmos 1933 Rocket 4.0 23:47:54 10° NNW 23:52:03 47° W 23:53:53 29° SSW
Cosmos 1441 Rocket 2.9 23:54:17 41° SW 23:55:13 66° WNW 23:58:26 10° N
